Location: Township of Marena
(38.1747°N, 99.6798°W)
Time: 12:18:51
(UTC+00:00)

Cosmos 1953 Rocket - Pass Details

Date: 26 October 2020
Orbit: 605 x 634 km, 82.5° (Epoch: 24 November)

Event Time Altitude Azimuth Distance (km) Brightness Sun altitude
Rises 01:08:57 0° 347° (NNW) 2,897 7.1 -16.7°
Reaches altitude 10° 01:11:12 10° 342° (NNW) 1,992 6.3 -17.2°
Maximum altitude 01:15:29 52° 267° (W) 782 4.4 -18.0°
Drops below altitude 10° 01:19:46 10° 191° (S) 1,994 6.3 -18.9°
Sets 01:22:03 0° 186° (S) 2,901 7.1 -19.3°
